Year,Month,Day,Hour,Minute,Value (Times are PST for windspeed in km/hr)
2010,05,01,00,00,6.30
2010,05,01,00,01,5.80
2010,05,01,00,02,4.80
2010,05,01,00,03,6.20
2010,05,01,00,04,6.80
2010,05,01,00,05,4.10
2010,05,01,00,06,4.10
2010,05,01,00,07,3.60
2010,05,01,00,08,4.00
2010,05,01,00,09,5.30
2010,05,01,00,10,5.50
2010,05,01,00,11,6.30
2010,05,01,00,12,7.30
2010,05,01,00,18,4.70
2010,05,01,00,19,6.70
2010,05,01,00,20,7.00
2010,05,01,00,21,5.30
2010,05,01,00,22,5.90
2010,05,01,00,23,9.60
2010,05,01,00,24,7.40
2010,05,01,00,25,5.80
2010,05,01,00,26,5.30
2010,05,01,00,27,5.10
2010,05,01,00,28,7.50
2010,05,01,00,29,8.70
2010,05,01,00,30,7.90
2010,05,01,00,31,5.70
2010,05,01,00,32,5.40
2010,05,01,00,33,6.70
2010,05,01,00,34,3.10
2010,05,01,00,35,3.80
2010,05,01,00,36,3.00
2010,05,01,00,37,0.30
2010,05,01,00,38,0.00
2010,05,01,00,39,3.00
2010,05,01,00,40,3.30
2010,05,01,00,41,1.60
2010,05,01,00,42,1.90
2010,05,01,00,43,3.40
2010,05,01,00,44,2.90
2010,05,01,00,45,1.50
2010,05,01,00,46,2.50
2010,05,01,00,47,0.10
2010,05,01,00,48,2.20
2010,05,01,00,49,3.70
2010,05,01,00,50,2.40
2010,05,01,00,51,0.30
2010,05,01,00,52,0.00
2010,05,01,00,53,0.00
2010,05,01,00,54,0.00
2010,05,01,00,55,0.00
2010,05,01,00,56,0.00
2010,05,01,00,57,1.40
2010,05,01,00,58,1.10
2010,05,01,00,59,0.80
2010,05,01,01,00,0.00
2010,05,01,01,01,0.00
2010,05,01,01,02,0.00
2010,05,01,01,03,0.00
2010,05,01,01,04,0.00
2010,05,01,01,05,0.00
2010,05,01,01,06,0.00
2010,05,01,01,07,0.00
2010,05,01,01,08,0.00
2010,05,01,01,09,0.00
2010,05,01,01,10,0.00
2010,05,01,01,11,0.00
2010,05,01,01,12,0.00
2010,05,01,01,13,0.00
2010,05,01,01,14,0.00
2010,05,01,01,15,0.00
2010,05,01,01,16,0.00
2010,05,01,01,17,0.00
2010,05,01,01,18,0.00
2010,05,01,01,19,0.00
2010,05,01,01,20,0.00
2010,05,01,01,21,0.00
2010,05,01,01,22,0.00
2010,05,01,01,23,0.00
2010,05,01,01,24,0.00
2010,05,01,01,25,0.00
2010,05,01,01,26,0.00
2010,05,01,01,27,0.00
2010,05,01,01,28,0.00
2010,05,01,01,29,0.00
2010,05,01,01,30,0.00
2010,05,01,01,31,0.00
2010,05,01,01,32,0.00
2010,05,01,01,33,0.00
2010,05,01,01,34,0.00
2010,05,01,01,35,0.00
2010,05,01,01,36,0.00
2010,05,01,01,37,0.00
2010,05,01,01,38,0.00
2010,05,01,01,39,0.00
2010,05,01,01,40,0.00
2010,05,01,01,41,0.00
2010,05,01,01,42,0.00
2010,05,01,01,43,0.00
2010,05,01,01,44,0.00
2010,05,01,01,45,0.00
2010,05,01,01,46,0.00
2010,05,01,01,47,0.00
2010,05,01,01,48,0.00
2010,05,01,01,49,0.00
2010,05,01,01,50,0.00
2010,05,01,01,51,0.00
2010,05,01,01,52,0.00
2010,05,01,01,53,0.00
2010,05,01,01,54,0.00
2010,05,01,01,55,0.00
2010,05,01,01,56,0.00
2010,05,01,01,57,0.00
2010,05,01,01,58,0.00
2010,05,01,01,59,0.00
2010,05,01,02,00,0.00
2010,05,01,02,01,0.00
2010,05,01,02,02,0.00
2010,05,01,02,03,0.00
2010,05,01,02,04,0.00
2010,05,01,02,05,0.00
2010,05,01,02,06,0.00
2010,05,01,02,07,0.00
2010,05,01,02,08,0.00
2010,05,01,02,09,0.00
2010,05,01,02,10,0.00
2010,05,01,02,11,0.00
2010,05,01,02,12,0.00
2010,05,01,02,13,0.00
2010,05,01,02,14,0.00
2010,05,01,02,15,0.00
2010,05,01,02,16,0.00
2010,05,01,02,17,0.00
2010,05,01,02,18,0.00
2010,05,01,02,19,0.00
2010,05,01,02,20,0.20
2010,05,01,02,21,0.10
2010,05,01,02,22,1.50
2010,05,01,02,23,2.90
2010,05,01,02,24,3.00
2010,05,01,02,25,0.80
2010,05,01,02,26,0.10
2010,05,01,02,27,0.00
2010,05,01,02,28,0.00
2010,05,01,02,29,0.00
2010,05,01,02,30,0.10
2010,05,01,02,31,0.00
2010,05,01,02,32,0.00
2010,05,01,02,33,0.10
2010,05,01,02,34,0.00
2010,05,01,02,35,0.00
2010,05,01,02,36,0.00
2010,05,01,02,37,0.00
2010,05,01,02,38,0.00
2010,05,01,02,39,0.00
2010,05,01,02,40,0.00
2010,05,01,02,41,0.00
2010,05,01,02,42,0.00
2010,05,01,02,43,0.00
2010,05,01,02,44,0.00
2010,05,01,02,45,0.00
2010,05,01,02,46,0.00
2010,05,01,02,47,0.00
2010,05,01,02,48,0.00
2010,05,01,02,49,0.00
2010,05,01,02,50,0.00
2010,05,01,02,51,0.00
2010,05,01,02,52,0.00
2010,05,01,02,53,0.00
2010,05,01,02,54,0.10
2010,05,01,02,55,0.10
2010,05,01,02,56,0.60
2010,05,01,02,57,0.50
2010,05,01,02,58,0.10
2010,05,01,02,59,1.30
2010,05,01,03,00,1.80
2010,05,01,03,01,2.10
2010,05,01,03,02,0.00
2010,05,01,03,03,0.00
2010,05,01,03,04,0.00
2010,05,01,03,05,0.00
2010,05,01,03,06,0.00
2010,05,01,03,07,0.00
2010,05,01,03,08,0.00
2010,05,01,03,09,0.00
2010,05,01,03,10,0.00
2010,05,01,03,11,0.00
2010,05,01,03,12,0.00
2010,05,01,03,13,0.00
2010,05,01,03,14,0.00
2010,05,01,03,15,0.00
2010,05,01,03,16,0.00
2010,05,01,03,17,0.00
2010,05,01,03,18,0.00
2010,05,01,03,19,0.00
2010,05,01,03,20,0.00
2010,05,01,03,21,0.00
2010,05,01,03,22,0.00
2010,05,01,03,23,0.00
2010,05,01,03,24,0.00
2010,05,01,03,25,0.00
2010,05,01,03,26,0.00
2010,05,01,03,27,0.00
2010,05,01,03,28,0.00
2010,05,01,03,29,0.00
2010,05,01,03,30,0.00
2010,05,01,03,31,0.00
2010,05,01,03,32,0.00
2010,05,01,03,33,0.00
2010,05,01,03,34,0.00
2010,05,01,03,35,0.00
2010,05,01,03,36,0.00
2010,05,01,03,37,0.00
2010,05,01,03,38,0.00
2010,05,01,03,39,0.00
2010,05,01,03,40,0.00
2010,05,01,03,41,0.00
2010,05,01,03,42,0.00
2010,05,01,03,43,0.00
2010,05,01,03,44,0.00
2010,05,01,03,45,0.00
2010,05,01,03,46,0.00
2010,05,01,03,47,0.00
2010,05,01,03,48,0.10
2010,05,01,03,49,0.00
2010,05,01,03,50,0.00
2010,05,01,03,51,0.00
2010,05,01,03,52,0.00
2010,05,01,03,53,0.00
2010,05,01,03,54,0.00
2010,05,01,03,55,0.00
2010,05,01,03,56,0.10
2010,05,01,03,57,0.00
2010,05,01,03,58,0.00
2010,05,01,03,59,1.40
2010,05,01,04,00,2.30
2010,05,01,04,01,2.10
2010,05,01,04,02,0.70
2010,05,01,04,03,0.40
2010,05,01,04,04,3.10
2010,05,01,04,05,2.80
2010,05,01,04,06,2.10
2010,05,01,04,07,2.20
2010,05,01,04,08,2.20
2010,05,01,04,09,0.70
2010,05,01,04,10,1.70
2010,05,01,04,11,0.60
2010,05,01,04,12,1.10
2010,05,01,04,13,1.00
2010,05,01,04,14,0.00
2010,05,01,04,15,0.50
2010,05,01,04,16,1.30
2010,05,01,04,17,0.00
2010,05,01,04,18,0.00
2010,05,01,04,19,0.00
2010,05,01,04,20,0.00
2010,05,01,04,21,0.00
2010,05,01,04,22,0.00
2010,05,01,04,23,0.00
2010,05,01,04,24,0.00
2010,05,01,04,25,0.00
2010,05,01,04,26,0.00
2010,05,01,04,27,0.00
2010,05,01,04,28,0.00
2010,05,01,04,29,0.00
2010,05,01,04,30,0.00
2010,05,01,04,31,0.00
2010,05,01,04,32,0.10
2010,05,01,04,33,0.00
2010,05,01,04,34,0.00
2010,05,01,04,35,0.00
2010,05,01,04,36,1.30
2010,05,01,04,37,3.20
2010,05,01,04,38,3.30
2010,05,01,04,39,3.90
2010,05,01,04,40,0.90
2010,05,01,04,41,1.10
2010,05,01,04,42,0.50
2010,05,01,04,43,1.30
2010,05,01,04,44,0.40
2010,05,01,04,45,0.10
2010,05,01,04,46,0.30
2010,05,01,04,47,2.00
2010,05,01,04,48,2.50
2010,05,01,04,49,1.10
2010,05,01,04,50,0.10
2010,05,01,04,51,0.10
2010,05,01,04,52,2.00
2010,05,01,04,53,2.90
2010,05,01,04,54,3.40
2010,05,01,04,55,2.60
2010,05,01,04,56,2.80
2010,05,01,04,57,2.80
2010,05,01,04,58,4.70
2010,05,01,04,59,2.10
2010,05,01,05,00,1.30
2010,05,01,05,01,2.20
2010,05,01,05,02,2.00
2010,05,01,05,03,1.40
2010,05,01,05,04,3.70
2010,05,01,05,05,3.00
2010,05,01,05,06,2.50
2010,05,01,05,07,2.20
2010,05,01,05,08,2.20
2010,05,01,05,09,2.50
2010,05,01,05,10,3.40
2010,05,01,05,11,3.20
2010,05,01,05,12,0.60
2010,05,01,05,13,0.70
2010,05,01,05,14,3.20
2010,05,01,05,15,3.70
2010,05,01,05,16,2.40
2010,05,01,05,17,2.10
2010,05,01,05,18,2.60
2010,05,01,05,19,1.90
2010,05,01,05,20,1.10
2010,05,01,05,21,1.10
2010,05,01,05,22,3.20
2010,05,01,05,23,3.10
2010,05,01,05,24,2.80
2010,05,01,05,25,2.20
2010,05,01,05,26,3.00
2010,05,01,05,27,2.80
2010,05,01,05,28,2.50
2010,05,01,05,29,2.60
2010,05,01,05,30,2.40
2010,05,01,05,31,1.30
2010,05,01,05,32,1.80
2010,05,01,05,33,1.70
2010,05,01,05,34,0.30
2010,05,01,05,35,0.00
2010,05,01,05,36,0.10
2010,05,01,05,37,0.00
2010,05,01,05,38,0.00
2010,05,01,05,39,0.00
2010,05,01,05,40,0.00
2010,05,01,05,41,1.90
2010,05,01,05,42,0.20
2010,05,01,05,43,0.10
2010,05,01,05,44,0.20
2010,05,01,05,45,0.00
2010,05,01,05,46,0.00
2010,05,01,05,47,0.00
2010,05,01,05,48,0.00
2010,05,01,05,49,0.00
2010,05,01,05,50,0.00
2010,05,01,05,51,0.00
2010,05,01,05,52,0.00
2010,05,01,05,53,0.00
2010,05,01,05,54,0.00
2010,05,01,05,55,0.00
2010,05,01,05,56,0.00
2010,05,01,05,57,0.20
2010,05,01,05,58,1.70
2010,05,01,05,59,1.90
2010,05,01,06,00,1.30
2010,05,01,06,01,2.60
2010,05,01,06,02,2.60
2010,05,01,06,03,1.70
2010,05,01,06,04,0.50
2010,05,01,06,05,2.10
2010,05,01,06,06,0.00
2010,05,01,06,07,0.00
2010,05,01,06,08,0.00
2010,05,01,06,09,0.00
2010,05,01,06,10,0.10
2010,05,01,06,11,0.10
2010,05,01,06,12,0.00
2010,05,01,06,13,0.00
2010,05,01,06,14,0.00
2010,05,01,06,15,0.00
2010,05,01,06,16,0.00
2010,05,01,06,17,0.00
2010,05,01,06,18,0.00
2010,05,01,06,19,0.00
2010,05,01,06,20,0.00
2010,05,01,06,21,0.00
2010,05,01,06,22,0.00
2010,05,01,06,23,0.00
2010,05,01,06,24,0.00
2010,05,01,06,25,0.00
2010,05,01,06,26,0.00
2010,05,01,06,27,0.00
2010,05,01,06,28,0.00
2010,05,01,06,29,0.00
2010,05,01,06,30,0.00
2010,05,01,06,31,0.00
2010,05,01,06,32,0.00
2010,05,01,06,33,0.00
2010,05,01,06,34,0.00
2010,05,01,06,35,0.00
2010,05,01,06,36,0.00
2010,05,01,06,37,0.00
2010,05,01,06,38,0.00
2010,05,01,06,39,0.00
2010,05,01,06,40,0.00
2010,05,01,06,41,0.00
2010,05,01,06,42,0.00
2010,05,01,06,43,0.00
2010,05,01,06,44,0.00
2010,05,01,06,45,0.00
2010,05,01,06,46,0.00
2010,05,01,06,47,0.00
2010,05,01,06,48,0.00
2010,05,01,06,49,0.00
2010,05,01,06,50,0.00
2010,05,01,06,51,0.00
2010,05,01,06,52,0.00
2010,05,01,06,53,0.00
2010,05,01,06,54,0.00
2010,05,01,06,55,0.00
2010,05,01,06,56,0.00
2010,05,01,06,57,0.00
2010,05,01,06,58,0.00
2010,05,01,06,59,0.00
2010,05,01,07,00,0.00
2010,05,01,07,01,0.00
2010,05,01,07,02,0.00
2010,05,01,07,03,0.00
2010,05,01,07,04,0.00
2010,05,01,07,05,0.00
2010,05,01,07,06,0.00
2010,05,01,07,07,0.00
2010,05,01,07,08,0.00
2010,05,01,07,09,0.00
2010,05,01,07,10,0.00
2010,05,01,07,11,0.00
2010,05,01,07,12,0.00
2010,05,01,07,13,0.00
2010,05,01,07,14,0.00
2010,05,01,07,15,0.00
2010,05,01,07,16,0.00
2010,05,01,07,17,0.00
2010,05,01,07,18,0.00
2010,05,01,07,19,0.00
2010,05,01,07,20,0.00
2010,05,01,07,21,0.00
2010,05,01,07,22,0.00
2010,05,01,07,23,0.00
2010,05,01,07,24,0.00
2010,05,01,07,25,0.00
2010,05,01,07,26,0.00
2010,05,01,07,27,0.00
2010,05,01,07,28,0.00
2010,05,01,07,29,0.00
2010,05,01,07,30,0.00
2010,05,01,07,31,0.00
2010,05,01,07,32,0.00
2010,05,01,07,33,0.00
2010,05,01,07,34,0.00
2010,05,01,07,35,0.20
2010,05,01,07,36,0.00
2010,05,01,07,37,1.60
2010,05,01,07,38,0.80
2010,05,01,07,39,0.00
2010,05,01,07,40,2.60
2010,05,01,07,41,2.30
2010,05,01,07,42,3.80
2010,05,01,07,43,4.40
2010,05,01,07,44,4.70
2010,05,01,07,45,4.20
2010,05,01,07,46,1.40
2010,05,01,07,47,0.10
2010,05,01,07,48,1.30
2010,05,01,07,49,0.10
2010,05,01,07,50,2.30
2010,05,01,07,51,2.40
2010,05,01,07,52,0.30
2010,05,01,07,53,2.20
2010,05,01,07,54,2.50
2010,05,01,07,55,3.70
2010,05,01,07,56,3.30
2010,05,01,07,57,2.00
2010,05,01,07,58,1.80
2010,05,01,07,59,0.20
2010,05,01,08,00,0.00
2010,05,01,08,01,0.20
2010,05,01,08,02,1.50
2010,05,01,08,03,4.00
2010,05,01,08,04,4.40
2010,05,01,08,05,4.10
2010,05,01,08,06,5.00
2010,05,01,08,07,4.50
2010,05,01,08,08,4.60
2010,05,01,08,09,4.00
2010,05,01,08,10,3.30
2010,05,01,08,11,2.90
2010,05,01,08,12,3.70
2010,05,01,08,13,4.70
2010,05,01,08,14,4.00
2010,05,01,08,15,3.90
2010,05,01,08,16,3.50
2010,05,01,08,17,1.30
2010,05,01,08,18,0.60
2010,05,01,08,19,0.00
2010,05,01,08,20,1.40
2010,05,01,08,21,0.00
2010,05,01,08,22,0.00
2010,05,01,08,23,0.00
2010,05,01,08,24,1.10
2010,05,01,08,25,1.80
2010,05,01,08,26,0.20
2010,05,01,08,27,0.00
2010,05,01,08,28,0.00
2010,05,01,08,29,2.60
2010,05,01,08,30,2.50
2010,05,01,08,31,4.20
2010,05,01,08,32,4.50
2010,05,01,08,33,3.80
2010,05,01,08,34,4.40
2010,05,01,08,35,7.30
2010,05,01,08,36,5.30
2010,05,01,08,37,8.10
2010,05,01,08,38,9.00
2010,05,01,08,39,9.50
2010,05,01,08,40,9.70
2010,05,01,08,41,11.90
2010,05,01,08,42,9.00
2010,05,01,08,43,8.00
2010,05,01,08,44,8.10
2010,05,01,08,45,7.80
2010,05,01,08,46,7.70
2010,05,01,08,47,9.80
2010,05,01,08,48,8.50
2010,05,01,08,49,12.10
2010,05,01,08,50,9.70
2010,05,01,08,51,8.30
2010,05,01,08,52,10.70
2010,05,01,08,53,7.40
2010,05,01,08,54,7.60
2010,05,01,08,55,9.10
2010,05,01,08,56,4.20
2010,05,01,08,57,7.50
2010,05,01,08,58,8.60
2010,05,01,08,59,15.00
2010,05,01,09,00,9.70
2010,05,01,09,01,9.30
2010,05,01,09,02,9.50
2010,05,01,09,03,8.10
2010,05,01,09,04,10.90
2010,05,01,09,05,11.70
2010,05,01,09,06,11.20
2010,05,01,09,07,12.10
2010,05,01,09,08,9.30
2010,05,01,09,09,9.70
2010,05,01,09,10,8.20
2010,05,01,09,11,10.30
2010,05,01,09,12,11.50
2010,05,01,09,13,9.80
2010,05,01,09,14,8.60
2010,05,01,09,15,7.30
2010,05,01,09,16,7.70
2010,05,01,09,17,11.10
2010,05,01,09,18,8.60
2010,05,01,09,19,7.70
2010,05,01,09,20,3.60
2010,05,01,09,21,6.00
2010,05,01,09,22,9.00
2010,05,01,09,23,3.80
2010,05,01,09,24,3.10
2010,05,01,09,25,8.50
2010,05,01,09,26,6.60
2010,05,01,09,27,7.20
2010,05,01,09,28,5.70
2010,05,01,09,29,9.80
2010,05,01,09,30,7.40
2010,05,01,09,31,4.50
2010,05,01,09,32,1.10
2010,05,01,09,33,7.60
2010,05,01,09,34,3.90
2010,05,01,09,35,3.20
2010,05,01,09,36,6.60
2010,05,01,09,37,9.90
2010,05,01,09,38,10.60
2010,05,01,09,39,6.90
2010,05,01,09,40,10.10
2010,05,01,09,41,9.90
2010,05,01,09,42,13.00
2010,05,01,09,43,9.00
2010,05,01,09,44,15.30
2010,05,01,09,45,15.20
2010,05,01,09,46,11.70
2010,05,01,09,47,11.80
2010,05,01,09,48,15.20
2010,05,01,09,49,11.30
2010,05,01,09,50,14.60
2010,05,01,09,51,13.60
2010,05,01,09,52,11.10
2010,05,01,09,53,14.10
2010,05,01,09,54,13.00
2010,05,01,09,55,13.60
2010,05,01,09,56,12.10
2010,05,01,09,57,15.50
2010,05,01,09,58,17.00
2010,05,01,09,59,17.00
2010,05,01,10,00,17.70
2010,05,01,10,01,15.40
2010,05,01,10,02,17.10
2010,05,01,10,03,19.00
2010,05,01,10,04,13.60
2010,05,01,10,05,20.00
2010,05,01,10,06,9.00
2010,05,01,10,07,15.30
2010,05,01,10,08,15.60
2010,05,01,10,09,9.70
2010,05,01,10,10,13.00
2010,05,01,10,11,15.50
2010,05,01,10,12,16.40
2010,05,01,10,13,4.60
2010,05,01,10,14,5.70
2010,05,01,10,15,12.30
2010,05,01,10,16,14.40
2010,05,01,10,17,13.00
2010,05,01,10,18,16.00
2010,05,01,10,19,13.00
2010,05,01,10,20,18.30
2010,05,01,10,21,13.10
2010,05,01,10,22,13.00
2010,05,01,10,23,11.40
2010,05,01,10,24,14.50
2010,05,01,10,25,15.60
2010,05,01,10,26,19.50
2010,05,01,10,27,13.30
2010,05,01,10,28,14.00
2010,05,01,10,29,11.60
2010,05,01,10,30,15.60
2010,05,01,10,31,9.40
2010,05,01,10,32,12.60
2010,05,01,10,33,21.40
2010,05,01,10,34,11.80
2010,05,01,10,35,9.70
2010,05,01,10,36,19.90
2010,05,01,10,37,10.60
2010,05,01,10,38,14.10
2010,05,01,10,39,9.10
2010,05,01,10,40,10.30
2010,05,01,10,41,14.90
2010,05,01,10,42,16.90
2010,05,01,10,43,18.70
2010,05,01,10,44,20.80
2010,05,01,10,45,16.00
2010,05,01,10,46,11.20
2010,05,01,10,47,13.80
2010,05,01,10,48,18.00
2010,05,01,10,49,11.30
2010,05,01,10,50,14.00
2010,05,01,10,51,11.20
2010,05,01,10,52,13.40
2010,05,01,10,53,18.50
2010,05,01,10,54,14.60
2010,05,01,10,55,13.80
2010,05,01,10,56,15.00
2010,05,01,10,57,17.10
2010,05,01,10,58,15.60
2010,05,01,10,59,15.50
2010,05,01,11,00,16.70
2010,05,01,11,01,10.30
2010,05,01,11,02,15.30
2010,05,01,11,03,20.40
2010,05,01,11,04,18.50
2010,05,01,11,05,26.50
2010,05,01,11,06,19.50
2010,05,01,11,07,18.90
2010,05,01,11,08,17.00
2010,05,01,11,09,23.40
2010,05,01,11,10,18.60
2010,05,01,11,11,15.70
2010,05,01,11,12,7.50
2010,05,01,11,13,15.50
2010,05,01,11,14,11.30
2010,05,01,11,15,10.50
2010,05,01,11,16,12.80
2010,05,01,11,17,14.80
2010,05,01,11,18,8.40
2010,05,01,11,19,13.50
2010,05,01,11,20,15.90
2010,05,01,11,21,25.50
2010,05,01,11,22,21.80
2010,05,01,11,23,22.60
2010,05,01,11,24,13.80
2010,05,01,11,25,11.80
2010,05,01,11,26,12.90
2010,05,01,11,27,13.30
2010,05,01,11,28,15.00
2010,05,01,11,29,7.20
2010,05,01,11,30,10.80
2010,05,01,11,31,11.20
2010,05,01,11,32,7.30
2010,05,01,11,33,6.90
2010,05,01,11,34,8.20
2010,05,01,11,35,8.90
2010,05,01,11,36,8.80
2010,05,01,11,37,14.60
2010,05,01,11,38,8.10
2010,05,01,11,39,12.60
2010,05,01,11,40,17.90
2010,05,01,11,41,17.70
2010,05,01,11,42,8.70
2010,05,01,11,43,6.30
2010,05,01,11,44,14.60
2010,05,01,11,45,19.00
2010,05,01,11,46,12.50
2010,05,01,11,47,13.60
2010,05,01,11,48,7.50
2010,05,01,11,49,14.20
2010,05,01,11,50,17.80
2010,05,01,11,51,12.10
2010,05,01,11,52,14.80
2010,05,01,11,53,17.00
2010,05,01,11,54,15.40
2010,05,01,11,55,14.60
2010,05,01,11,56,17.30
2010,05,01,11,57,18.60
2010,05,01,11,58,17.30
2010,05,01,11,59,12.20
2010,05,01,12,00,22.00
2010,05,01,12,01,10.70
2010,05,01,12,02,6.50
2010,05,01,12,03,14.40
2010,05,01,12,04,14.10
2010,05,01,12,05,15.00
2010,05,01,12,06,15.80
2010,05,01,12,07,10.90
2010,05,01,12,08,14.10
2010,05,01,12,09,20.80
2010,05,01,12,10,23.80
2010,05,01,12,11,17.20
2010,05,01,12,12,19.80
2010,05,01,12,13,22.20
2010,05,01,12,14,11.30
2010,05,01,12,15,14.30
2010,05,01,12,16,22.70
2010,05,01,12,17,11.90
2010,05,01,12,18,10.40
2010,05,01,12,19,19.00
2010,05,01,12,20,10.90
2010,05,01,12,21,16.50
2010,05,01,12,22,21.60
2010,05,01,12,23,24.40
2010,05,01,12,24,22.80
2010,05,01,12,25,21.10
2010,05,01,12,26,17.10
2010,05,01,12,27,17.20
2010,05,01,12,28,22.10
2010,05,01,12,29,21.90
2010,05,01,12,30,20.50
2010,05,01,12,31,20.50
2010,05,01,12,32,19.40
2010,05,01,12,33,17.50
2010,05,01,12,34,18.60
2010,05,01,12,35,18.90
2010,05,01,12,36,16.30
2010,05,01,12,37,15.70
2010,05,01,12,38,20.80
2010,05,01,12,39,13.40
2010,05,01,12,40,23.50
2010,05,01,12,41,20.40
2010,05,01,12,42,12.60
2010,05,01,12,43,14.70
2010,05,01,12,44,14.20
2010,05,01,12,45,24.30
2010,05,01,12,46,19.40
2010,05,01,12,47,12.10
2010,05,01,12,48,19.00
2010,05,01,12,49,16.20
2010,05,01,12,50,21.60
2010,05,01,12,51,20.20
2010,05,01,12,52,19.80
2010,05,01,12,53,13.70
2010,05,01,12,54,13.10
2010,05,01,12,55,17.90
2010,05,01,12,56,23.70
2010,05,01,12,57,20.90
2010,05,01,12,58,18.30
2010,05,01,12,59,17.40
2010,05,01,13,00,13.30
2010,05,01,13,01,19.60
2010,05,01,13,02,21.50
2010,05,01,13,03,14.70
2010,05,01,13,04,19.10
2010,05,01,13,05,9.90
2010,05,01,13,06,19.80
2010,05,01,13,07,22.10
2010,05,01,13,08,13.10
2010,05,01,13,09,18.90
2010,05,01,13,10,18.90
2010,05,01,13,11,30.30
2010,05,01,13,12,17.90
2010,05,01,13,13,14.70
2010,05,01,13,14,18.30
2010,05,01,13,15,8.20
2010,05,01,13,16,27.50
2010,05,01,13,17,15.70
2010,05,01,13,18,15.30
2010,05,01,13,19,17.80
2010,05,01,13,20,18.30
2010,05,01,13,21,21.50
2010,05,01,13,22,30.30
2010,05,01,13,23,19.60
2010,05,01,13,24,19.50
2010,05,01,13,25,15.90
2010,05,01,13,26,9.00
2010,05,01,13,27,11.10
2010,05,01,13,28,10.00
2010,05,01,13,29,8.10
2010,05,01,13,30,12.80
2010,05,01,13,31,6.30
2010,05,01,13,32,12.10
2010,05,01,13,33,8.60
2010,05,01,13,34,6.70
2010,05,01,13,35,15.60
2010,05,01,13,36,10.40
2010,05,01,13,37,10.70
2010,05,01,13,38,8.00
2010,05,01,13,39,9.10
2010,05,01,13,40,15.50
2010,05,01,13,41,21.90
2010,05,01,13,42,23.50
2010,05,01,13,43,19.20
2010,05,01,13,44,17.10
2010,05,01,13,45,11.90
2010,05,01,13,46,12.80
2010,05,01,13,47,12.70
2010,05,01,13,48,15.60
2010,05,01,13,49,16.60
2010,05,01,13,50,15.20
2010,05,01,13,51,12.50
2010,05,01,13,52,13.90
2010,05,01,13,53,18.50
2010,05,01,13,54,20.70
2010,05,01,13,55,21.40
2010,05,01,13,56,17.90
2010,05,01,13,57,16.00
2010,05,01,13,58,14.80
2010,05,01,13,59,18.00
2010,05,01,14,00,18.30
2010,05,01,14,01,19.40
2010,05,01,14,02,22.00
2010,05,01,14,03,27.00
2010,05,01,14,04,24.60
2010,05,01,14,05,23.70
2010,05,01,14,06,21.90
2010,05,01,14,07,22.80
2010,05,01,14,08,21.60
2010,05,01,14,09,31.70
2010,05,01,14,10,17.30
2010,05,01,14,11,17.30
2010,05,01,14,12,19.60
2010,05,01,14,13,23.10
2010,05,01,14,14,30.10
2010,05,01,14,15,28.40
2010,05,01,14,16,25.40
2010,05,01,14,17,23.50
2010,05,01,14,18,26.20
2010,05,01,14,19,16.10
2010,05,01,14,20,18.30
2010,05,01,14,21,26.10
2010,05,01,14,22,29.90
2010,05,01,14,23,35.00
2010,05,01,14,24,21.70
2010,05,01,14,25,25.90
2010,05,01,14,26,27.40
2010,05,01,14,27,18.60
2010,05,01,14,28,33.80
2010,05,01,14,29,41.10
2010,05,01,14,30,37.00
2010,05,01,14,31,34.60
2010,05,01,14,32,31.70
2010,05,01,14,33,25.70
2010,05,01,14,34,36.20
2010,05,01,14,35,33.20
2010,05,01,14,36,29.80
2010,05,01,14,37,31.00
2010,05,01,14,38,31.10
2010,05,01,14,39,28.90
2010,05,01,14,40,27.70
2010,05,01,14,41,31.50
2010,05,01,14,42,37.90
2010,05,01,14,43,24.70
2010,05,01,14,44,29.50
2010,05,01,14,45,26.00
2010,05,01,14,46,23.30
2010,05,01,14,47,33.30
2010,05,01,14,48,27.50
2010,05,01,14,49,26.80
2010,05,01,14,50,29.60
2010,05,01,14,51,29.90
2010,05,01,14,52,35.00
2010,05,01,14,53,32.30
2010,05,01,14,54,26.90
2010,05,01,14,55,24.10
2010,05,01,14,56,15.00
2010,05,01,14,57,22.60
2010,05,01,14,58,33.50
2010,05,01,14,59,30.70
2010,05,01,15,00,30.70
2010,05,01,15,01,28.20
2010,05,01,15,02,24.30
2010,05,01,15,03,31.70
2010,05,01,15,04,27.40
2010,05,01,15,05,25.30
2010,05,01,15,06,23.10
2010,05,01,15,07,27.50
2010,05,01,15,08,24.60
2010,05,01,15,09,31.20
2010,05,01,15,10,30.30
2010,05,01,15,11,31.40
2010,05,01,15,12,31.40
2010,05,01,15,13,15.50
2010,05,01,15,14,22.00
2010,05,01,15,15,17.50
2010,05,01,15,16,23.50
2010,05,01,15,17,27.00
2010,05,01,15,18,33.50
2010,05,01,15,19,25.20
2010,05,01,15,20,25.70
2010,05,01,15,21,26.90
2010,05,01,15,22,19.30
2010,05,01,15,23,20.60
2010,05,01,15,24,29.30
2010,05,01,15,25,23.00
2010,05,01,15,26,19.40
2010,05,01,15,27,18.00
2010,05,01,15,28,22.90
2010,05,01,15,29,19.30
2010,05,01,15,30,13.80
2010,05,01,15,31,32.10
2010,05,01,15,32,18.30
2010,05,01,15,33,24.20
2010,05,01,15,34,15.90
2010,05,01,15,35,36.10
2010,05,01,15,36,26.80
2010,05,01,15,37,27.00
2010,05,01,15,38,13.90
2010,05,01,15,39,17.50
2010,05,01,15,40,21.50
2010,05,01,15,41,24.20
2010,05,01,15,42,29.60
2010,05,01,15,43,31.70
2010,05,01,15,44,31.30
2010,05,01,15,45,31.20
2010,05,01,15,46,29.00
2010,05,01,15,47,33.10
2010,05,01,15,48,19.20
2010,05,01,15,49,32.50
2010,05,01,15,50,29.90
2010,05,01,15,51,23.80
2010,05,01,15,52,26.60
2010,05,01,15,53,29.10
2010,05,01,15,54,24.90
2010,05,01,15,55,17.60
2010,05,01,15,56,25.40
2010,05,01,15,57,22.60
2010,05,01,15,58,22.40
2010,05,01,15,59,28.30
2010,05,01,16,00,30.30
2010,05,01,16,01,32.30
2010,05,01,16,02,27.70
2010,05,01,16,03,23.50
2010,05,01,16,04,25.70
2010,05,01,16,05,16.50
2010,05,01,16,06,18.50
2010,05,01,16,07,21.30
2010,05,01,16,08,30.40
2010,05,01,16,09,25.10
2010,05,01,16,10,22.80
2010,05,01,16,11,33.20
2010,05,01,16,12,28.00
2010,05,01,16,13,35.10
2010,05,01,16,14,30.70
2010,05,01,16,15,35.20
2010,05,01,16,16,27.40
2010,05,01,16,17,28.50
2010,05,01,16,18,21.30
2010,05,01,16,19,20.30
2010,05,01,16,20,24.10
2010,05,01,16,21,29.90
2010,05,01,16,22,29.10
2010,05,01,16,23,19.50
2010,05,01,16,24,16.80
2010,05,01,16,25,21.30
2010,05,01,16,26,22.20
2010,05,01,16,27,26.10
2010,05,01,16,28,12.00
2010,05,01,16,29,21.90
2010,05,01,16,30,23.10
2010,05,01,16,31,20.00
2010,05,01,16,32,25.00
2010,05,01,16,33,17.80
2010,05,01,16,34,24.90
2010,05,01,16,35,20.40
2010,05,01,16,36,19.50
2010,05,01,16,37,24.70
2010,05,01,16,38,18.90
2010,05,01,16,39,21.50
2010,05,01,16,40,21.40
2010,05,01,16,41,24.80
2010,05,01,16,42,21.50
2010,05,01,16,43,30.40
2010,05,01,16,44,25.50
2010,05,01,16,45,31.60
2010,05,01,16,46,20.00
2010,05,01,16,47,21.50
2010,05,01,16,48,22.40
2010,05,01,16,49,14.70
2010,05,01,16,50,15.30
2010,05,01,16,51,20.40
2010,05,01,16,52,23.10
2010,05,01,16,53,29.50
2010,05,01,16,54,33.10
2010,05,01,16,55,26.10
2010,05,01,16,56,26.60
2010,05,01,16,57,35.30
2010,05,01,16,58,27.30
2010,05,01,16,59,26.20
2010,05,01,17,00,31.80
2010,05,01,17,01,23.90
2010,05,01,17,02,12.20
2010,05,01,17,03,9.70
2010,05,01,17,04,16.30
2010,05,01,17,05,20.10
2010,05,01,17,06,17.50
2010,05,01,17,07,21.00
2010,05,01,17,08,26.10
2010,05,01,17,09,24.50
2010,05,01,17,10,24.50
2010,05,01,17,11,19.70
2010,05,01,17,12,20.10
2010,05,01,17,13,23.00
2010,05,01,17,14,20.90
2010,05,01,17,15,21.60
2010,05,01,17,16,27.50
2010,05,01,17,17,20.10
2010,05,01,17,18,31.50
2010,05,01,17,19,12.00
2010,05,01,17,20,13.20
2010,05,01,17,21,19.00
2010,05,01,17,22,21.60
2010,05,01,17,23,29.70
2010,05,01,17,24,29.40
2010,05,01,17,25,21.80
2010,05,01,17,26,23.30
2010,05,01,17,27,28.00
2010,05,01,17,28,23.60
2010,05,01,17,29,21.10
2010,05,01,17,30,32.10
2010,05,01,17,31,33.40
2010,05,01,17,32,30.20
2010,05,01,17,33,30.60
2010,05,01,17,34,28.20
2010,05,01,17,35,29.10
2010,05,01,17,36,27.40
2010,05,01,17,37,26.00
2010,05,01,17,38,27.20
2010,05,01,17,39,19.40
2010,05,01,17,40,26.20
2010,05,01,17,41,24.10
2010,05,01,17,42,28.40
2010,05,01,17,43,28.60
2010,05,01,17,44,27.30
2010,05,01,17,45,22.30
2010,05,01,17,46,23.30
2010,05,01,17,47,20.40
2010,05,01,17,48,26.20
2010,05,01,17,49,21.80
2010,05,01,17,50,28.80